Location: Chazeaux
(45.0964°N, 4.1139°E)
Time: 01:49:00
(UTC+00:00)

Daily predictions for brighter satellites

Satellite Brightness Start Highest point End
(mag) Time Altitude Azimuth Time Altitude Azimuth Time Altitude Azimuth
USA 234 4.0 02:16:53 10° E 02:22:14 47° NE 02:22:14 47° NE
ADEOS II 4.5 02:20:56 10° NNE 02:22:02 17° NNE 02:22:02 17° NNE
ATLAS 3B R/B 4.2 02:30:07 23° N 02:32:52 30° NE 02:38:44 10° E
Cosmos 2278 Rocket 4.0 02:33:22 17° N 02:36:31 27° NE 02:41:18 10° ESE
COSMOS 2455 3.9 02:40:32 41° NE 02:40:32 41° NE 02:44:19 10° NE
Cosmos 2333 Rocket 3.3 02:44:00 40° ENE 02:44:00 40° ENE 02:48:12 10° NE
CENTAUR R/B 4.1 02:39:09 19° NNW 02:44:25 43° NE 02:52:29 10° ESE
Aureole 1 Rocket 4.4 02:56:46 51° ENE 02:56:46 51° ENE 03:00:59 10° NNE
ATLAS 2AS CENTAUR R/B 3.7 02:54:25 38° SSE 02:56:55 49° ESE 03:04:35 10° NE
IDEFIX/ARIANE 42P 3.8 02:52:41 10° NNE 02:57:32 37° E 02:58:15 35° ESE
SL-16 R/B 4.2 03:03:15 17° N 03:03:15 17° N 03:04:57 10° N
USA 238 DEB 3.7 03:01:10 84° NNE 03:01:20 85° NE 03:08:46 10° SE
USA 238 3.7 03:01:13 83° NNE 03:01:26 85° NE 03:08:52 10° SE
Cosmos 2219 Rocket 2.6 03:08:18 60° ENE 03:08:18 60° ENE 03:12:59 10° NNE
Cosmos 2098 Rocket 4.5 03:13:37 59° NW 03:13:37 59° NW 03:19:55 10° N
Cosmos 2237 Rocket 3.6 03:14:24 20° SSE 03:17:35 34° ESE 03:22:41 10° NE
NOSS 3-2 (A) 3.9 03:23:04 41° NW 03:26:14 82° SW 03:34:40 10° SSE
Cosmos 2322 Rocket 4.2 03:32:59 15° NNW 03:32:59 15° NNW 03:34:50 10° N
Cosmos 2181 Rocket 3.9 03:24:51 10° N 03:31:16 89° W 03:37:31 10° S
Cosmos 292 Rocket 4.2 03:30:33 43° N 03:31:54 61° ENE 03:36:40 10° SSE
USA 267 3.2 03:25:33 10° NE 03:32:02 67° NNW 03:32:58 60° WNW
CZ-2C R/B 4.2 03:27:25 10° NNE 03:32:05 32° E 03:36:40 10° SSE
Cosmos 44 3.7 03:32:06 50° NE 03:32:06 50° NE 03:36:17 10° SE
COSMOS 2428 2.6 03:33:55 72° NW 03:33:55 72° NW 03:39:21 10° NNE
Cosmos 1980 4.4 03:31:43 26° S 03:34:41 50° ESE 03:40:08 10° NE
Cosmos 407 Rocket 4.5 03:31:43 21° SSE 03:34:48 43° ESE 03:39:38 10° NNE
Cosmos 1536 Rocket 4.4 03:36:16 43° NNE 03:36:16 43° NNE 03:39:14 10° N
Cosmos 2360 Rocket 3.6 03:41:57 23° NNW 03:41:57 23° NNW 03:45:09 10° N
Cosmos 1707 4.3 03:42:54 10° SSE 03:46:28 36° E 03:50:05 10° NNE
Cosmos 1470 3.2 03:44:39 10° N 03:48:33 59° E 03:52:22 10° SSE
NOSS 3-2 (C) 4.0 03:44:17 19° NW 03:50:13 84° SW 03:58:40 10° SSE
ADEOS 3.4 03:45:29 10° NNE 03:50:44 80° WNW 03:52:06 51° SSW
USA 32 4.0 03:50:35 10° S 03:55:49 84° E 04:01:06 10° N
Meteor 1-4 Rocket 4.1 03:58:52 10° SSE 04:02:04 34° E 04:05:15 10° NNE
ADEOS II 4.1 04:02:04 10° NNW 04:02:58 13° NNW 04:02:58 13° NNW
USA 234 3.2 03:59:32 10° SE 04:06:01 65° SW 04:09:35 29° WNW
Cosmos 1606 Rocket 4.5 04:02:23 10° N 04:06:35 48° ENE 04:10:46 10° SSE
NOSS 3-4 (A) 3.4 04:03:38 26° SSW 04:07:12 81° SE 04:13:35 10° NE
NOSS 3-4 (C) 3.4 04:03:39 25° SSW 04:07:17 80° SE 04:13:41 10° NE
NOSS 2-2 (D) 4.3 04:09:57 32° NNW 04:09:57 32° NNW 04:13:20 10° NNE
SL-16 R/B 3.8 04:05:42 10° S 04:10:45 35° ESE 04:15:51 10° NE
Centaur D AC-28 4.4 04:11:23 10° S 04:13:23 12° SSE 04:16:06 10° ESE
Cosmos 1140 Rocket 3.7 04:12:57 10° S 04:18:07 71° ESE 04:23:16 10° NNE
Cosmos 389 Rocket 2.3 04:17:48 34° S 04:19:12 89° E 04:22:39 10° N
H-2A R/B 2.5 04:15:54 10° N 04:20:00 60° WNW 04:21:56 30° SW
SJ-6F 4.3 04:16:22 10° NNE 04:20:33 85° WNW 04:24:40 10° SSW
Cosmos 614 Rocket 3.9 04:16:44 18° SSW 04:20:43 77° WNW 04:25:58 10° NNE
Cosmos 2278 Rocket 2.2 04:15:25 10° NNW 04:20:57 55° WSW 04:26:26 10° S
PAYLOAD A 3.8 04:18:33 10° N 04:23:23 74° WNW 04:28:23 10° SSW
Cosmos 2327 Rocket 4.4 04:17:19 10° S 04:23:34 90° ESE 04:29:46 10° N
Cosmos 2154 Rocket 4.2 04:17:53 10° S 04:24:03 75° E 04:30:16 10° NNE
ATLAS 3B R/B 2.6 04:17:30 10° NW 04:24:13 79° SW 04:31:05 10° SSE
COSMOS 2455 4.0 04:23:42 23° WNW 04:24:53 24° NW 04:29:44 10° NNE
Cosmos 2333 Rocket 3.0 04:26:04 29° WNW 04:27:14 31° NW 04:32:18 10° N
Cosmos 1610 Rocket 4.5 04:26:00 10° S 04:32:16 87° W 04:38:40 10° N
Cosmos 2184 Rocket 4.0 04:27:33 10° SSW 04:33:41 60° WNW 04:39:53 10° N
COSMO-SKYMED 1 3.4 04:31:14 10° SSE 04:35:27 53° ENE 04:39:42 10° N
CENTAUR R/B 3.2 04:27:43 10° NW 04:35:42 66° WSW 04:44:18 10° SSE
IDEFIX/ARIANE 42P 3.3 04:32:26 10° N 04:37:02 32° WNW 04:39:03 24° WSW
Cosmos 1356 3.6 04:37:49 10° N 04:41:17 74° ENE 04:44:43 10° SSE
Nadezhda 3 Rocket 4.0 04:37:01 10° N 04:43:25 78° W 04:49:44 10° S
Cosmos 1437 Rocket 3.6 04:41:54 10° S 04:45:34 52° E 04:49:16 10° NNE
Cosmos 1726 Rocket 3.4 04:43:12 10° NNW 04:47:31 76° W 04:51:49 10° S
Cosmos 2228 2.9 04:43:17 10° NNW 04:47:32 71° W 04:51:45 10° S
ATLAS 2AS CENTAUR R/B 3.3 04:41:55 17° WSW 04:48:01 51° NW 04:55:49 10° NNE
NOSS 0 Rocket 4.3 04:43:38 16° WSW 04:48:15 44° NW 04:54:12 10° NNE
Cosmos 1025 Rocket 4.3 04:49:16 20° WNW 04:49:16 20° WNW 04:52:17 10° NNW
Cosmos 2341 Rocket 4.3 04:43:17 10° S 04:49:29 70° E 04:55:41 10° NNE
PSLV R/B 3.6 04:47:45 10° NNE 04:51:30 88° ESE 04:55:11 10° SSW
CZ-4B R/B 2.9 04:47:35 10° N 04:51:32 53° WNW 04:55:16 10° SSW
Cosmos 2219 Rocket 3.4 04:50:04 19° WNW 04:51:56 22° NW 04:56:13 10° N
Cosmos 1023 Rocket 4.5 04:47:17 10° SW 04:52:23 58° WNW 04:57:29 10° NNE
ALOS 3.4 04:52:51 10° NNE 04:57:23 47° E 05:01:53 10° S
Cosmos 1953 2.8 04:54:10 10° NNW 04:57:53 35° W 05:01:32 10° SSW
Meteor PRIRODA 3.6 04:54:36 10° N 04:58:20 63° WNW 05:02:01 10° SSW
Okean O Rocket 2.7 04:56:08 10° NNE 05:00:25 48° E 05:04:39 10° S
ERBS 3.8 04:59:56 18° WNW 05:01:21 23° NNW 05:04:10 10° NNE
Cosmos 2237 Rocket 2.7 04:56:18 10° SW 05:01:34 40° NW 05:06:56 10° NNE
CZ-4B DEB 4.3 05:00:20 10° NNE 05:05:50 81° ESE 05:11:18 10° SSW
Cosmos 676 Rocket 4.1 05:00:43 10° SW 05:05:55 58° WNW 05:11:07 10° NNE
In-Cosmos 22 4.0 05:00:54 10° SSW 05:06:14 72° WNW 05:11:43 10° N
Cosmos 2058 Rocket 3.0 05:02:17 10° NNW 05:06:42 73° W 05:11:07 10° S
Meteor 2-10 4.0 05:03:21 10° NNW 05:08:31 70° W 05:13:50 10° S
Cosmos 1908 3.3 05:06:08 10° N 05:09:59 79° E 05:13:47 10° SSE
CZ-2C R/B 3.1 05:05:35 10° N 05:10:17 36° WNW 05:14:57 10° SW
Cosmos 44 4.4 05:10:36 13° WNW 05:12:55 19° WSW 05:16:00 10° SSW
PAYLOAD B 4.4 05:08:07 10° NNE 05:13:44 84° ESE 05:19:16 10° SSW
COBE Rocket 4.0 05:08:59 10° S 05:13:56 61° W 05:19:03 10° NNW
Cosmos 1295 Rocket 4.5 05:07:57 10° SSW 05:14:03 63° W 05:20:09 10° N
USA 267 4.1 05:08:37 10° NE 05:14:25 35° NNW 05:20:12 10° WNW
Meteor 1-31 Rocket 3.7 05:13:20 10° NNW 05:16:31 26° WNW 05:19:41 10° SW
Cosmos 2369 Rocket 3.4 05:11:24 10° NNW 05:16:43 42° ENE 05:22:00 10° SE
Cosmos 407 Rocket 4.4 05:12:37 10° WSW 05:16:58 27° WNW 05:21:18 10° N
Helios 1A Rocket 3.0 05:13:20 10° NNE 05:17:31 86° ESE 05:21:40 10° SSW
SL-8 Rocket 4.1 05:12:45 10° S 05:18:56 84° E 05:25:08 10° N
COSMOS 2428 4.4 05:15:58 11° WNW 05:18:57 16° NW 05:22:17 10° N
Cosmos 44 Rocket 3.2 05:15:52 10° NW 05:20:36 75° WSW 05:25:15 10° SSE
Iridium 51 4.1 05:18:05 10° N 05:21:56 90° WSW 05:25:30 10° S
Cosmos 1707 4.2 05:19:46 10° WSW 05:22:30 18° WNW 05:25:15 10° NNW
SKYMED 2 3.8 05:19:19 10° S 05:23:30 48° W 05:27:43 10° NNW
CZ-4B R/B 3.3 05:19:15 10° NNE 05:24:34 78° ESE 05:29:51 10° S
Cosmos 2366 rocket 4.3 05:20:54 10° S 05:27:13 77° E 05:33:36 10° N
RESURS DK-1 2.7 05:24:03 10° SW 05:28:02 45° WNW 05:32:02 10° NNE
MOS 1-B 4.5 05:25:32 10° N 05:31:13 57° WNW 05:36:53 10° SW
Milstar 3 Cent rocket 4.4 05:30:34 10° S 05:31:18 10° S 05:32:00 10° SSE
Cosmos 1892 Rocket 4.2 05:28:06 10° SW 05:32:07 33° WNW 05:36:09 10° N
Cosmos 1726 2.8 05:29:30 10° NNW 05:32:49 32° W 05:36:07 10° SSW
Cosmos 1484 Rocket 3.3 05:29:41 10° N 05:33:11 36° WNW 05:36:43 10° SW
BREEZE-M DEB (TANK) 2.6 05:32:57 10° WNW 05:36:11 33° N 05:38:14 10° ENE
